Flag for Australia Weather past 2 weeks in Cairns, Queensland, Australia

Now
77 °F

Partly sunny.


Feels Like: 79 °F
Forecast: 67 / 79 °F
Wind: 8 mph from East

Location: Cairns Airport

Current Time: Aug 21, 2014 at 11:33:09 AM

Latest Report: Aug 21, 2014 at 11:00 AM


Visibility: N/A

Pressure: 30.04 "Hg

Humidity: 51%

Dew point: 57 °F

Location of CairnsLocation

Historic Weather in Cairns — Graph

°F

Cairns temperature yesterday

Maximum temperature yesterday: 79 °F (at 1:00 PM)
Minimum temperature yesterday: 55 °F (at 6:30 AM)
Average temperature yesterday: 68 °F

Past Weeks' High & Low Weather Summary

 TemperatureHumidityPressure
High81 °F (Aug 17, 12:30 PM)100% (Aug 15, 12:00 AM)30.18 "Hg (Aug 15, 12:00 AM)
Low55 °F (Aug 20, 6:30 AM)37% (Aug 20, 2:00 PM)29.83 "Hg (Aug 16, 2:30 PM)
Average70 °F74%30.05 "Hg
* Reported Aug 6 10:00 AM — Aug 21 10:00 AM, Cairns, Weather by CustomWeather, © 2014

Note: Actual official high and low records may vary slightly from our data, if they occured in-between our weather recording intervals... More about our weather records

Advertising

Cairns weather history for previous 24 hours

 ConditionsComfort  
Time TempWeatherWind HumidityBarometerVisibility
10:00 AM
Aug 21
77 °FPassing clouds.8 mph54%30.07 "HgN/A
9:30 AM75 °FPassing clouds.8 mph57%30.07 "HgN/A
9:00 AM75 °FPassing clouds.9 mph57%30.04 "HgN/A
8:30 AM73 °FPartly sunny.9 mph61%30.04 "HgN/A
8:00 AM72 °FPartly sunny.8 mph61%30.04 "HgN/A
7:30 AM72 °FPartly sunny.7 mph61%30.04 "HgN/A
7:00 AM68 °FPartly sunny.6 mph78%30.01 "HgN/A
6:30 AM66 °FPassing clouds.1 mph83%30.01 "HgN/A
6:00 AM66 °FPassing clouds.5 mph83%30.01 "HgN/A
5:30 AM64 °FPassing clouds.No wind88%30.01 "HgN/A
5:00 AM64 °FPassing clouds.5 mph88%29.98 "HgN/A
4:30 AM64 °FPassing clouds.No wind88%29.98 "HgN/A
4:00 AM63 °FPassing clouds.No wind94%29.98 "HgN/A
3:30 AM63 °FPassing clouds.No wind88%30.01 "HgN/A
3:00 AM64 °FPassing clouds.No wind88%30.01 "HgN/A
2:30 AM64 °FPassing clouds.No wind88%30.01 "HgN/A
2:00 AM64 °FPassing clouds.No wind88%30.01 "HgN/A
1:30 AM64 °FPassing clouds.No wind88%30.01 "HgN/A
1:00 AM63 °FPassing clouds.No wind88%30.04 "HgN/A
12:30 AM64 °FPassing clouds.3 mph83%30.04 "HgN/A
12:00 AM64 °FPassing clouds.1 mph83%30.04 "HgN/A
11:30 PM
Aug 20
64 °FPassing clouds.No wind88%30.07 "HgN/A
11:00 PM70 °FPassing clouds.6 mph60%30.07 "HgN/A
10:30 PM70 °FPassing clouds.6 mph60%30.07 "HgN/A
10:00 PM68 °FPassing clouds.6 mph64%30.07 "HgN/A
9:30 PM70 °FPassing clouds.8 mph60%30.07 "HgN/A
9:00 PM70 °FPassing clouds.7 mph64%30.07 "HgN/A
8:30 PM70 °FPassing clouds.8 mph64%30.07 "HgN/A
8:00 PM70 °FPassing clouds.8 mph69%30.07 "HgN/A
7:30 PM70 °FPassing clouds.8 mph69%30.04 "HgN/A
7:00 PM70 °FPassing clouds.7 mph69%30.04 "HgN/A
6:30 PM70 °FPassing clouds.10 mph69%30.04 "HgN/A
6:00 PM72 °FScattered clouds.15 mph65%30.01 "HgN/A
5:30 PM73 °FSunny.13 mph57%30.01 "Hg10 mi
5:00 PM75 °FPassing clouds.13 mph54%29.98 "HgN/A
4:30 PM75 °FPassing clouds.14 mph50%29.98 "HgN/A
4:00 PM77 °FPassing clouds.15 mph47%29.98 "HgN/A
3:30 PM77 °FPassing clouds.15 mph47%29.95 "HgN/A
3:00 PM79 °FPassing clouds.16 mph45%29.95 "HgN/A
2:00 PM79 °FPassing clouds.13 mph37%29.95 "HgN/A
1:30 PM79 °FPartly sunny.13 mph42%29.98 "HgN/A
1:00 PM79 °FPartly sunny.9 mph42%29.98 "HgN/A
12:30 PM77 °FPartly sunny.9 mph47%30.01 "HgN/A
12:00 PM77 °FPartly sunny.9 mph47%30.01 "HgN/A
11:30 AM77 °FPartly sunny.7 mph51%30.04 "HgN/A
11:00 AM75 °FPartly sunny.9 mph50%30.04 "HgN/A
Weather by CustomWeather, © 2014

See weather overviewHow to use our weather pages